Ortonville, MN

10:40 PM CDT on May 22, 2017 (GMT -0500)
Ortonville Municipal-Martinson

Weather History for KVVV - December, 2012

Change the Weather History Date:

Saturday, December 29, 2012

  Actual Average (KAQP) Record (KAQP)
Temperature  
Mean Temperature 3 °F -  
Max Temperature 10 °F 20 °F 59 °F (1999)
Min Temperature -4 °F 5 °F -14 °F (2013)
Degree Days  
Heating Degree Days 62    
Moisture  
Dew Point -1 °F    
Average Humidity 81    
Maximum Humidity 85    
Minimum Humidity 73    
Precipitation  
Precipitation 0.00 in - - ()
Sea Level Pressure  
Sea Level Pressure 30.07 in    
Wind  
Wind Speed 0 mph (West)    
Max Wind Speed 5 mph    
Max Gust Speed -    
Visibility 8 miles    
Events Snow    
Averages and records for this station are not official NWS values.
T = Trace of Precipitation, MM = Missing Value Source: NWS Daily Summary

Daily Weather History Graph

Daily Weather History Graph

Search for Another Location

Airport or City:

Trip Planner

Search our weather history database for the weather conditions in past years. The results will help you decide how hot, cold, wet, or windy it might be!

Date:

Astronomy

Dec. 29, 2012 Rise Set
Actual Time 8:04 AM CST 4:51 PM CST
Civil Twilight 7:30 AM CST 5:25 PM CST
Nautical Twilight 6:53 AM CST 6:02 PM CST
Astronomical Twilight 6:17 AM CST 6:38 PM CST
Moon 6:30 PM CST (12/29) 8:34 AM CST (12/29)
Length of Visible Light 9h 54m
Length of Day
8h 46m
Full, 98% of the Moon is Illuminated
Dec 29
Full
Jan 4
Last Quarter
Jan 11
New
Jan 18
First Quarter
Jan 26
Full

Hourly Weather History & Observations

Time (CST) Temp. Windchill Dew Point Humidity Pressure Visibility Wind Dir Wind Speed Gust Speed Precip Events Conditions
12:14 AM 6.8 °F - 3.2 °F 85% 30.05 in 5.0 mi Calm Calm - N/A   Scattered Clouds
12:34 AM 5.0 °F - 1.4 °F 85% 30.05 in 5.0 mi Calm Calm - N/A   Scattered Clouds
12:54 AM 3.2 °F - -0.4 °F 85% 30.04 in 4.0 mi Calm Calm - N/A Snow Light Snow
1:14 AM 3.2 °F - -0.4 °F 85% 30.04 in 7.0 mi Calm Calm - N/A   Clear
1:33 AM 3.2 °F - -0.4 °F 85% 30.04 in 7.0 mi Calm Calm - N/A   Clear
1:54 AM 3.2 °F - -0.4 °F 85% 30.04 in 5.0 mi Calm Calm - N/A   Clear
2:14 AM 1.4 °F - -2.2 °F 85% 30.04 in 4.0 mi Calm Calm - N/A   Scattered Clouds
2:34 AM -0.4 °F - -4.0 °F 85% 30.05 in 5.0 mi Calm Calm - N/A   Clear
2:54 AM -2.2 °F - -5.8 °F 85% 30.06 in 5.0 mi Calm Calm - N/A   Scattered Clouds
3:14 AM 1.4 °F - -2.2 °F 85% 30.05 in 7.0 mi Calm Calm - N/A Snow Light Snow
3:34 AM 3.2 °F - -0.4 °F 85% 30.05 in 7.0 mi Calm Calm - N/A   Scattered Clouds
3:54 AM 3.2 °F - -2.2 °F 78% 30.05 in 7.0 mi Calm Calm - N/A   Clear
4:14 AM 1.4 °F - -2.2 °F 85% 30.05 in 7.0 mi Calm Calm - N/A   Clear
4:34 AM 1.4 °F - -2.2 °F 85% 30.04 in 7.0 mi Calm Calm - N/A   Clear
4:54 AM 1.4 °F - -2.2 °F 85% 30.04 in 10.0 mi Calm Calm - N/A   Clear
5:14 AM 3.2 °F - -0.4 °F 85% 30.04 in 10.0 mi Calm Calm - N/A   Clear
5:34 AM 1.4 °F - -2.2 °F 85% 30.04 in 7.0 mi Calm Calm - N/A   Clear
6:14 AM 1.4 °F - -2.2 °F 85% 30.05 in 7.0 mi Calm Calm - N/A Snow Light Snow
6:33 AM 1.4 °F - -2.2 °F 85% 30.04 in 7.0 mi Calm Calm - N/A Snow Light Snow
7:14 AM -0.4 °F - -5.8 °F 78% 30.05 in 7.0 mi Calm Calm - N/A Snow Light Snow
7:34 AM -0.4 °F - -5.8 °F 78% 30.06 in 7.0 mi Calm Calm - N/A   Scattered Clouds
7:53 AM -4.0 °F - -9.4 °F 78% 30.06 in 7.0 mi Calm Calm - N/A   Scattered Clouds
8:14 AM -0.4 °F - -5.8 °F 78% 30.07 in 7.0 mi Calm Calm - N/A   Mostly Cloudy
8:34 AM 1.4 °F - -2.2 °F 85% 30.07 in 7.0 mi Calm Calm - N/A   Overcast
8:54 AM 3.2 °F - -0.4 °F 85% 30.06 in 10.0 mi Calm Calm - N/A   Overcast
9:14 AM 3.2 °F - -2.2 °F 78% 30.06 in 10.0 mi Calm Calm - N/A   Overcast
9:34 AM 1.4 °F - -2.2 °F 85% 30.07 in 10.0 mi Calm Calm - N/A   Mostly Cloudy
9:54 AM 3.2 °F - -0.4 °F 85% 30.07 in 10.0 mi Calm Calm - N/A   Scattered Clouds
10:13 AM 5.0 °F - 1.4 °F 85% 30.08 in 10.0 mi Calm Calm - N/A   Clear
10:34 AM 6.8 °F - 3.2 °F 85% 30.08 in 10.0 mi Calm Calm - N/A   Clear
10:54 AM 6.8 °F - 3.2 °F 85% 30.09 in 10.0 mi Calm Calm - N/A   Clear
11:13 AM 8.6 °F - 3.2 °F 79% 30.10 in 10.0 mi Calm Calm - N/A   Clear
11:34 AM 8.6 °F 0.1 °F 5.0 °F 85% 30.09 in 10.0 mi West 4.6 mph - N/A   Clear
11:54 AM 10.4 °F - 6.8 °F 85% 30.08 in 10.0 mi Calm Calm - N/A   Clear
12:13 PM 10.4 °F - 6.8 °F 85% 30.07 in 10.0 mi Calm Calm - N/A   Clear
12:53 PM 10.4 °F - 6.8 °F 85% 30.07 in 10.0 mi Calm Calm - N/A   Scattered Clouds
1:14 PM 10.4 °F - 6.8 °F 85% 30.06 in 10.0 mi Calm Calm - N/A   Scattered Clouds
1:34 PM 10.4 °F - 5.0 °F 79% 30.07 in 5.0 mi Calm Calm - N/A Snow Light Snow
1:53 PM 10.4 °F 2.2 °F 3.2 °F 73% 30.07 in 3.0 mi West 4.6 mph - N/A Snow Light Snow
2:14 PM 10.4 °F 2.2 °F 3.2 °F 73% 30.07 in 10.0 mi West 4.6 mph - N/A Snow Light Snow
2:34 PM 10.4 °F 2.2 °F 3.2 °F 73% 30.07 in 10.0 mi West 4.6 mph - N/A   Clear
2:54 PM 10.4 °F - 3.2 °F 73% 30.07 in 10.0 mi Calm Calm - N/A   Clear
3:14 PM 10.4 °F - 3.2 °F 73% 30.07 in 10.0 mi Calm Calm - N/A   Clear
3:34 PM 10.4 °F - 3.2 °F 73% 30.08 in 10.0 mi Calm Calm - N/A   Clear
3:54 PM 10.4 °F - 3.2 °F 73% 30.08 in 10.0 mi Calm Calm - N/A   Clear
4:13 PM 10.4 °F - 3.2 °F 73% 30.08 in 10.0 mi Calm Calm - N/A   Clear
4:34 PM 8.6 °F - 3.2 °F 79% 30.09 in 10.0 mi Calm Calm - N/A   Clear
5:14 PM 8.6 °F - 3.2 °F 79% 30.09 in 10.0 mi Calm Calm - N/A   Clear
5:34 PM 6.8 °F - 1.4 °F 79% 30.10 in 7.0 mi Calm Calm - N/A   Clear
5:54 PM 6.8 °F - 3.2 °F 85% 30.10 in 10.0 mi Calm Calm - N/A   Clear
6:14 PM 3.2 °F - -0.4 °F 85% 30.09 in 7.0 mi Calm Calm - N/A   Clear
6:34 PM 1.4 °F - -2.2 °F 85% 30.10 in 7.0 mi Calm Calm - N/A   Clear
6:53 PM 3.2 °F - -0.4 °F 85% 30.11 in 7.0 mi Calm Calm - N/A   Clear
7:14 PM 1.4 °F - -2.2 °F 85% 30.11 in 7.0 mi Calm Calm - N/A   Clear
7:34 PM -0.4 °F - -5.8 °F 78% 30.10 in 7.0 mi Calm Calm - N/A   Clear
7:54 PM -0.4 °F - -4.0 °F 85% 30.10 in 5.0 mi Calm Calm - N/A   Clear
8:54 PM -0.4 °F - -4.0 °F 85% 30.11 in 7.0 mi Calm Calm - N/A   Mostly Cloudy
9:14 PM -0.4 °F - -5.8 °F 78% 30.11 in 7.0 mi Calm Calm - N/A   Scattered Clouds
9:33 PM -2.2 °F - -7.6 °F 78% 30.11 in 7.0 mi Calm Calm - N/A   Scattered Clouds
9:54 PM -0.4 °F - -4.0 °F 85% 30.11 in 7.0 mi Calm Calm - N/A   Mostly Cloudy
10:14 PM -0.4 °F - -5.8 °F 78% 30.11 in 5.0 mi Calm Calm - N/A   Mostly Cloudy
10:33 PM -0.4 °F - -5.8 °F 78% 30.12 in 7.0 mi Calm Calm - N/A   Clear
10:54 PM -0.4 °F - -5.8 °F 78% 30.12 in 7.0 mi Calm Calm - N/A   Clear
11:14 PM -0.4 °F - -5.8 °F 78% 30.11 in 7.0 mi Calm Calm - N/A   Clear
11:33 PM -0.4 °F - -5.8 °F 78% 30.11 in 7.0 mi Calm Calm - N/A   Clear
11:54 PM -0.4 °F - -5.8 °F 78% 30.11 in 7.0 mi Calm Calm - N/A   Clear